Current weather by "City, St" or "zip code"  
 
Advertise Here

Current Conditions: Walla Walla Regional Airport, WA

Light Snow Fog/Mist Fog in Vicinity


29.0 F

Last Updated on Jan 25 2021, 12:53 am PST
Humidity: 96%
Wind Speed: N 0.0 mph
Barometer 29.77 in
Dewpoint: 28.0 F
Visibility: 2.00 mi
Precip: Trace
Heat Index: NA
Wind Chill: NA
Current conditions at:

Walla Walla Regional Airport, WA (KALW)

Lat: 46.09462 Lon: 118.2858

Local Radar Image active severe weather and emergency alerts image image weather storm and storm spotter reports image weather observation monitoring service image
Local
Radar
Active
Alerts
Storm Reports Obs
Monitoring

Sign-up For Email & Text Message Weather Alert Notification Services


Advertise Here

Observation History for Walla Walla Regional Airport, WA


Time Wind
(mph)
Vis
(mi)
Weather Precip (in) Temperature (F) Relative
Humidity
Wind
Chill
(F)
Heat
Index
(F)
Pressure
Air Dwpt altimeter
(in)
sea level
(mb)
Rmks
12:53 am PST N 0.0 2.00 Light Snow Fog/Mist Fog in Vicinity Trace 29.0 28.0 96% NA NA 29.77 1009.3
11:53 pm PST SE 4.6 3.00 Light Snow Fog/Mist Fog in Vicinity Trace 29.0 27.0 92% 24 NA 29.78 1009.7
10:53 pm PST S 3.5 8.00 Fog in Vicinity -- 29.0 27.0 92% NA NA 29.78 1009.6
9:53 pm PST S 3.5 9.00 Fog in Vicinity -- 29.0 27.0 92% NA NA 29.76 1009.0
8:53 pm PST S 3.5 10.00 Fog in Vicinity -- 29.0 26.1 89% NA NA 29.76 1009.0
7:53 pm PST S 4.6 10.00 Fog in Vicinity -- 29.0 26.1 89% 24 NA 29.75 1008.8
6:53 pm PST S 4.6 10.00 Fog in Vicinity -- 30.0 27.0 88% 25 NA 29.75 1008.6
5:53 pm PST SW 3.5 10.00 Fog in Vicinity -- 30.0 27.0 88% NA NA 29.74 1008.3
4:53 pm PST S 5.8 10.00 Fog in Vicinity -- 31.0 27.0 85% 25 NA 29.74 1008.3
3:53 pm PST W 4.6 8.00 Fog in Vicinity -- 31.0 27.0 85% 26 NA 29.74 1008.2
2:53 pm PST W 4.6 9.00 Fog in Vicinity -- 33.0 27.0 78% 29 NA 29.74 1008.4
1:53 pm PST N 0.0 10.00 Fog in Vicinity -- 32.0 26.1 79% NA NA 29.74 1008.4
12:53 pm PST N 0.0 8.00 Fog in Vicinity -- 32.0 27.0 82% NA NA 29.76 1009.0
11:53 am PST SW 4.6 10.00 Fair -- 31.0 26.1 82% 26 NA 29.78 1009.5
10:53 am PST SW 3.5 10.00 Fair -- 30.0 25.0 82% NA NA 29.81 1010.8
9:53 am PST S 4.6 10.00 Fair -- 28.0 25.0 88% 23 NA 29.83 1011.3
8:53 am PST S 5.8 10.00 Fair -- 27.0 23.0 85% 20 NA 29.83 1011.5
7:53 am PST S 6.9 10.00 Fair -- 26.0 23.0 88% 18 NA 29.83 1011.4
6:53 am PST N 0.0 10.00 Fair -- 29.0 23.0 78% NA NA 29.83 1011.4
5:53 am PST NW 4.6 10.00 Fair -- 29.0 23.0 78% 24 NA 29.84 1011.6
4:53 am PST S 6.9 10.00 Overcast -- 33.0 24.1 70% 27 NA 29.85 1011.8
3:53 am PST SE 8.1 10.00 Fair -- 32.0 21.9 66% 25 NA 29.87 1012.5
2:53 am PST SE 5.8 10.00 Fair -- 27.0 21.0 78% 20 NA 29.90 1013.5

Regional Weather Observation


Tri-Cities Airport, WA (KPSC)

Light Snow Fog/Mist
30.0 F

Richland Airport, WA (KRLD)

Light Snow
31.0 F

Eastern Oregon Regional Airport at Pendleton, OR (KPDT)

Freezing Fog
29.0 F

Hanford, WA (KHMS)

Partly Cloudy
61.0 F

Meacham, OR (KMEH)

Light Snow
27.0 F

Hermiston, Hermiston Municipal Airport, OR (KHRI)

Light Snow Fog/Mist
32.0 F